Regional Weather Roundup
Issued by NWS

Home | Current Version | Previous Version | Graphics & Text | Print | Product List | Glossary On
Versions: 1 2 3 4 5 6 7 8 9 10 11 12 13 14 15 16 17 18 19 20 21 22 23 24 25 26 27 28 29 30 31 32 33 34 35 36 37 38 39 40 41 42 43 44 45 46 47 48 49 50
000
ASUS43 KFSD 270802
RWRSD

WEATHER ROUNDUP FOR SOUTH DAKOTA
NATIONAL WEATHER SERVICE SIOUX FALLS SD
200 AM CST THU NOV 27 2014

NOTE: "FAIR" INDICATES FEW OR NO CLOUDS BELOW 12,000 FEET WITH NO
SIGNIFICANT WEATHER AND/OR OBSTRUCTIONS TO VISIBILITY.


SDZ001>005-009-010-012>017-270900-
NORTHWEST AND NORTH CENTRAL SOUTH DAKOTA

CITY           SKY/WX    TMP DP  RH WIND       PRES   REMARKS
BUFFALO          N/A     20  15  81 S10       30.17F WCI   9
FAITH            N/A     14  10  84 SE12      30.31F WCI   0
MOBRIDGE       MOCLDY     0  -5  79 E8        30.41S WCI -14
$$

SDZ012>016-024>037-041>051-057-063-072>074-270900-
SOUTHWEST AND SOUTH CENTRAL SOUTH DAKOTA

CITY           SKY/WX    TMP DP  RH WIND       PRES   REMARKS
RAPID CTY ARPT CLOUDY    23  21  92 E6        30.24S WCI  16
PIERRE         CLOUDY     8   4  83 E10       30.43S WCI  -6
CUSTER         PTCLDY    21  18  88 SW6       30.12F WCI  13
ELLSWORTH AFB  CLOUDY    22  21  94 E7        30.23F WCI  14
PHILIP         CLOUDY    19  13  77 E12       30.33F WCI   7
PINE RIDGE     CLOUDY    30  25  81 S5        30.23F WCI  25
WINNER         CLOUDY    17   8  67 E10       30.40F WCI   5
$$

SDZ004>011-016>023-039-040-270900-
NORTHEAST SOUTH DAKOTA

CITY           SKY/WX    TMP DP  RH WIND       PRES   REMARKS
ABERDEEN       MOCLDY   -10 -15  78 N5        30.52F WCI -22
WATERTOWN      PTCLDY    -8 -13  78 N5        30.44F WCI -19
SISSETON         N/A    -10 -14  82 NW6       30.52F WCI -23
$$

SDZ017-020-022-023-036>040-048>070-270900-
SOUTHEAST SOUTH DAKOTA

CITY           SKY/WX    TMP DP  RH WIND       PRES   REMARKS
SIOUX FALLS    PTCLDY     0  -7  72 NW5       30.50R WCI -10
HURON          MOCLDY    -5  -9  83 NW5       30.52S WCI -16
MITCHELL       CLOUDY     7   0  73 N7        30.53S WCI  -5
YANKTON        CLOUDY    12   5  73 N9        30.52S WCI   0
$$

ABBREVIATIONS USED IN REMARKS
   TC - TEMPERATURE IN CELSIUS
  WCI - WIND CHILL INDEX
   HX - HEAT INDEX
  VSB - VISIBILITY




USA.gov is the U.S. government's official web portal to all federal, state and local government web resources and services.